Regional Weather Roundup
Issued by NWS

Home | Current Version | Previous Version | Text Only | Print | Product List | Glossary Off
Versions: 1 2 3 4 5 6 7 8 9 10 11 12 13 14 15 16 17 18 19 20 21 22 23 24 25 26 27

000
ASUS45 KPSR 240210
RWRAZ

ARIZONA HOURLY REGIONAL WEATHER ROUNDUP
NATIONAL WEATHER SERVICE PHOENIX AZ
700 PM MST SAT JUL 23 2016

NOTE: FAIR INDICATES FEW OR NO CLOUDS BELOW 12,000 FEET WITH NO
SIGNIFICANT WEATHER AND/OR OBSTRUCTIONS TO VISIBILITY.

AZZ001>003-036-240300-
NORTHWEST ARIZONA

CITY           SKY/WX    TMP DP  RH WIND       PRES   REMARKS
BULLHEAD CITY  CLEAR    111  50  13 S18       29.65S HX 108
KINGMAN        CLEAR     98  47  17 SW17      29.93S
$$

AZZ004>008-015-016-018-240300-
NORTH CENTRAL ARIZONA

CITY           SKY/WX    TMP DP  RH WIND       PRES   REMARKS
GRAND CANYON   PTCLDY    88  40  18 CALM      30.19S
WILLIAMS       MOCLDY    77  43  29 SE17G24   30.31R
PRESCOTT       CLEAR     91  47  21 W14       30.07R
FLAGSTAFF      TSTM      67  49  52 N8        30.31R
PAYSON         MOCLDY    91  46  21 N12       30.10R
PAGE           PTCLDY   101  36  10 VRB7      29.91S
$$

AZZ009>014-017-240300-
NORTHEAST ARIZONA

CITY           SKY/WX    TMP DP  RH WIND       PRES   REMARKS
WINSLOW        CLOUDY    91  44  19 SW16      30.05R
SAINT JOHNS    MOCLDY    87  44  22 SW16G24   30.11R
WINDOW ROCK    LGT RAIN  81  51  35 NW7       30.20R
SHOW LOW       PTCLDY    77  50  38 CALM      30.21R
$$

AZZ023-240300-
GREATER PHOENIX AREA

CITY           SKY/WX    TMP DP  RH WIND       PRES   REMARKS
PHOENIX        PTCLDY   109  52  15 W14       29.69S HX 107
BUCKEYE        CLEAR    106  54  17 SW10      29.72R HX 104
GLENDALE       PTCLDY   109  54  16 S12       29.71S HX 108
LUKE AFB       CLEAR    109  53  15 SW10      29.69S HX 107
DEER VALLEY    CLEAR    108  52  15 W15       29.72S HX 105
SCOTTSDALE     CLEAR    107  52  16 SW10      29.74S HX 105
MESA-FALCON    PTCLDY   N/A N/A N/A SW9       29.70F
MESA-GATEWAY   PTCLDY   106  54  17 NW8       29.74S HX 104
CHANDLER       CLEAR    108  50  14 W9        29.72  HX 104
$$

AZZ027-028-240300-
SOUTHWEST MARICOPA COUNTY AND PINAL COUNTY

CITY           SKY/WX    TMP DP  RH WIND       PRES   REMARKS
CASA GRANDE    CLEAR    106  54  17 W13       29.77S HX 104
GILA BEND      FAIR     105  57  20 SW18      29.70S HX 105
$$

AZZ503-504-507>509-240300-
SOUTHEAST ARIZONA

CITY           SKY/WX    TMP DP  RH WIND       PRES   REMARKS
TUCSON         CLEAR    102  51  18 N14       29.87R
DAVIS-MONTHAN  CLEAR    100  52  19 NW13      29.86R
RYAN FIELD     CLEAR    102  52  18 N10       29.85S HX 100
NOGALES        PTCLDY    91  59  33 SW6       29.98R
SIERRA VISTA   PTCLDY    91  50  24 NW13      30.05R
DOUGLAS        CLEAR     91  57  31 N7        29.97R
SAFFORD        MOCLDY    94  51  23 NE21G28   29.88R
$$

AZZ020-021-025-026-031-240300-
SOUTHWEST ARIZONA

CITY           SKY/WX    TMP DP  RH WIND       PRES   REMARKS
YUMA           CLEAR    103  63  27 S13       29.68S HX 105
$$

CAZ031-033-041-043-047-048-061-240300-
SOUTHERN CALIFORNIA

CITY           SKY/WX    TMP DP  RH WIND       PRES   REMARKS
DOWNTOWN L.A.  SUNNY     78  66  66 CALM      29.80R
L.A. AIRPORT   MOSUNNY   77  64  64 SE10      29.80S
SAN DIEGO      PTCLDY    70  66  87 S9        29.82F
BURBANK        MOSUNNY   80  63  55 S6        29.81S
ONTARIO        MOSUNNY   87  60  40 W15       29.80R
RIVERSIDE      SUNNY     88  59  37 W7        29.80R
PALM SPRINGS   CLEAR    107  59  20 E3        29.69F HX 108
EL CENTRO NAS  CLOUDY   105  63  25 SE13      29.64S HAZE    HX 108
IMPERIAL       MOCLDY   106  64  25 SE16      29.62F HX 109
BLYTHE         PTCLDY   109  56  17 S16G25    29.67S HX 108
NEEDLES        MOCLDY   112  53  14 S17       29.68S HX 110
$$

NVZ020-UTZ003-240300-
SOUTHERN NEVADA-UTAH

CITY           SKY/WX    TMP DP  RH WIND       PRES   REMARKS
LAS VEGAS      CLEAR    109  26   5 SW13      29.71S HX 101
SALT LAKE CITY PTCLDY    90  24   9 N10       30.01F
$$

NMZ009-TXZ055-240300-
NEW MEXICO-WEST TEXAS

CITY           SKY/WX    TMP DP  RH WIND       PRES   REMARKS
ALBUQUERQUE    CLOUDY    95  42  16 SW10      30.02R
EL PASO        PTCLDY   100  37  11 CALM      29.91R
$$


........................KEY........................
SKY/WX - SKY CONDITION/WEATHER
TMP    - TEMPERATURE IN FAHRENHEIT
DP     - DEW POINT IN FAHRENHEIT
RH     - RELATIVE HUMIDITY IN PERCENT
WIND   - DIRECTION AND SPEED IN MILES PER HOUR (MPH)
VRB    - VARIABLE WIND DIRECTION
PRES   - MEAN SEA LEVEL PRESSURE IN INCHES OF MERCURY
         F - FALLING PRESSURE   R - RISING PRESSURE
         S - STEADY PRESSURE
VSB    - VISIBILITY IN MILES
HX     - HEAT INDEX IN FAHRENHEIT
WCI    - WIND CHILL INDEX IN FAHRENHEIT
TC     - TEMPERATURE IN CELSIUS WHICH IS ALSO KNOWN AS
         TEMPERATURE IN CENTIGRADE
AFB    - AIR FORCE BASE
         LUKE AFB IS LUKE AIR FORCE BASE
         DAVIS-MONTHAN IS DAVIS-MONTHAN AIR FORCE BASE
NAS    - NAVAL AIR STATION
         EL CENTRO NAS IS EL CENTRO NAVAL AIR STATION
N/A    - NOT AVAILABLE





USA.gov is the U.S. government's official web portal to all federal, state and local government web resources and services.